Preview of NWS' New Version of Forecast
This preview is not operational and should not be used for support decisions.

Regional Weather Roundup (RWR)

Issued by National Weather Service (NWS)

                            
000
ASCA42 TJSJ 172210
RWRPR 
PUERTO RICO/U.S. VIRGIN ISLANDS HOURLY WEATHER ROUNDUP
NATIONAL WEATHER SERVICE SAN JUAN PR
600 PM AST WED APR 17 2019

PRZ001>002-007>008-010-172300-
PUERTO RICO
  
CITY           SKY/WX    TMP DP  RH WIND       PRES   REMARKS
SAN JUAN LMM   PTCLDY    81  70  69 E18       29.97R                  
AGUADILLA      MOCLDY    79  70  73 E16G23    29.97S                  
CEIBA          PTCLDY    82  70  65 MISG      29.98S                  
$$

VIZ001>002-172300-
U.S. VIRGIN ISLANDS
  
CITY           SKY/WX    TMP DP  RH WIND       PRES   REMARKS
CHARLOTTE AMA  CLEAR     82  66  57 NE12      29.96R                  
CHRISTIANSTED  PTCLDY    81  66  61 E15       29.95F                  
$$

HOURLY WEATHER ROUNDUP FOR THE NEWS MEDIA
  
CITY           SKY/WX    TMP DP  RH WIND       PRES   REMARKS
ORLANDO        FAIR      80  56  43 E13       30.05S                  
NEW YORK       PTSUNNY   53  31  42 S17       30.18R                  
NEWARK         PTSUNNY   56  27  32 SE12      30.15R                  
CHICAGO        PTSUNNY   74  54  49 S22G31    29.63F                  
HARTFORD       FAIR      53  30  41 S13       30.18R                  
BOSTON         FAIR      51  36  56 E14       30.16R                  
DALLAS         MOSUNNY   82  68  62 S15G25    29.68F                  
PHILADELPHIA   PTSUNNY   61  35  37 E10       30.14R                  
LOS ANGELES    MOSUNNY   66  55  67 W18       30.13R                  
WASHINGTON DC  CLOUDY    67  46  47 E14       30.03S